[keps] orb06348.amsat
Ray Hoad
r.hoad at att.net
Thu Dec 14 20:34:12 PST 2006
SB KEPS @ AMSAT $ORB06348.O
Orbital Elements 06348.OSCAR
HR AMSAT ORBITAL ELEMENTS FOR OSCAR SATELLITES
FROM WA5QGD FORT WORTH,TX December 14, 2006
Send SUBSCRIBE KEPS/UNSUBSCRIBE KEPS to majordomo at amsat.org only
BID: ORB06348.O
TO ALL RADIO AMATEURS BT
Satellite: AO-07
Catalog number: 07530
Epoch time: 06348.70875882
Element set: 754
Inclination: 101.5443 deg
RA of node: 026.9585 deg
Eccentricity: 0.0011947
Arg of perigee: 255.3517 deg
Mean anomaly: 104.6226 deg
Mean motion: 12.53572145 rev/day
Decay rate: -2.8e-07 rev/day^2
Epoch rev: 46800
Checksum: 303
Satellite: UO-11
Catalog number: 14781
Epoch time: 06348.62884704
Element set: 249
Inclination: 098.2028 deg
RA of node: 002.6464 deg
Eccentricity: 0.0009919
Arg of perigee: 049.6879 deg
Mean anomaly: 310.5186 deg
Mean motion: 14.79500121 rev/day
Decay rate: 4.79e-06 rev/day^2
Epoch rev: 22244
Checksum: 318
Satellite: RS-10/11
Catalog number: 18129
Epoch time: 06348.65044909
Element set: 169
Inclination: 082.9255 deg
RA of node: 194.6676 deg
Eccentricity: 0.0011294
Arg of perigee: 319.5258 deg
Mean anomaly: 040.5052 deg
Mean motion: 13.72782218 rev/day
Decay rate: 3.3e-07 rev/day^2
Epoch rev: 97591
Checksum: 323
Satellite: RS-15
Catalog number: 23439
Epoch time: 06348.85854162
Element set: 996
Inclination: 064.8182 deg
RA of node: 305.0237 deg
Eccentricity: 0.0164690
Arg of perigee: 223.1259 deg
Mean anomaly: 135.6666 deg
Mean motion: 11.27552012 rev/day
Decay rate: -3.9e-07 rev/day^2
Epoch rev: 49291
Checksum: 318
Satellite: FO-29
Catalog number: 24278
Epoch time: 06347.95092333
Element set: 0401
Inclination: 098.5244 deg
RA of node: 327.7175 deg
Eccentricity: 0.0350150
Arg of perigee: 203.3538 deg
Mean anomaly: 155.1356 deg
Mean motion: 13.52925476 rev/day
Decay rate: -1.7e-07 rev/day^2
Epoch rev: 50985
Checksum: 312
Satellite: SO-33
Catalog number: 25509
Epoch time: 06347.88509593
Element set: 0817
Inclination: 031.4312 deg
RA of node: 193.4024 deg
Eccentricity: 0.0355890
Arg of perigee: 247.3954 deg
Mean anomaly: 108.8636 deg
Mean motion: 14.28139497 rev/day
Decay rate: 1.67e-06 rev/day^2
Epoch rev: 42474
Checksum: 336
Satellite: VO-52
Catalog number: 28650
Epoch time: 06348.76411771
Element set: 504
Inclination: 097.8541 deg
RA of node: 058.4188 deg
Eccentricity: 0.0028074
Arg of perigee: 132.4867 deg
Mean anomaly: 227.8769 deg
Mean motion: 14.81231279 rev/day
Decay rate: 4.26e-06 rev/day^2
Epoch rev: 8711
Checksum: 330
/EX
SB KEPS @ AMSAT $ORB06348.D
Orbital Elements 06348.MICROS
HR AMSAT ORBITAL ELEMENTS FOR THE MICROSATS
FROM WA5QGD FORT WORTH,TX December 14, 2006
Send SUBSCRIBE KEPS/UNSUBSCRIBE KEPS to majordomo at amsat.org only
BID: ORB06348.D
TO ALL RADIO AMATEURS BT
Satellite: AO-16
Catalog number: 20439
Epoch time: 06347.54638422
Element set: 0918
Inclination: 098.1891 deg
RA of node: 347.4228 deg
Eccentricity: 0.0011638
Arg of perigee: 024.1631 deg
Mean anomaly: 336.0101 deg
Mean motion: 14.31743365 rev/day
Decay rate: 1.9e-07 rev/day^2
Epoch rev: 88198
Checksum: 305
Satellite: LO-19
Catalog number: 20442
Epoch time: 06348.45452573
Element set: 849
Inclination: 098.1828 deg
RA of node: 357.7912 deg
Eccentricity: 0.0012371
Arg of perigee: 021.2456 deg
Mean anomaly: 338.9258 deg
Mean motion: 14.31985566 rev/day
Decay rate: 5.8e-07 rev/day^2
Epoch rev: 88225
Checksum: 338
Satellite: AO-27
Catalog number: 22825
Epoch time: 06348.79351950
Element set: 568
Inclination: 098.3070 deg
RA of node: 321.9698 deg
Eccentricity: 0.0009393
Arg of perigee: 086.6396 deg
Mean anomaly: 273.5842 deg
Mean motion: 14.29193750 rev/day
Decay rate: 1.22e-06 rev/day^2
Epoch rev: 68915
Checksum: 350
Satellite: IO-26
Catalog number: 22826
Epoch time: 06347.89252897
Element set: 0262
Inclination: 098.3002 deg
RA of node: 322.2567 deg
Eccentricity: 0.0009925
Arg of perigee: 085.9590 deg
Mean anomaly: 274.2730 deg
Mean motion: 14.29438288 rev/day
Decay rate: 4.4e-07 rev/day^2
Epoch rev: 68910
Checksum: 335
Satellite: PO-28
Catalog number: 22829
Epoch time: 06347.58915848
Element set: 0545
Inclination: 098.2907 deg
RA of node: 323.1581 deg
Eccentricity: 0.0010691
Arg of perigee: 065.5154 deg
Mean anomaly: 294.7140 deg
Mean motion: 14.30135897 rev/day
Decay rate: 9.6e-07 rev/day^2
Epoch rev: 68928
Checksum: 343
Satellite: GO-32
Catalog number: 25397
Epoch time: 06347.68736272
Element set: 180
Inclination: 098.4434 deg
RA of node: 037.7524 deg
Eccentricity: 0.0002051
Arg of perigee: 063.3730 deg
Mean anomaly: 296.7670 deg
Mean motion: 14.23116536 rev/day
Decay rate: -1.0e-07 rev/day^2
Epoch rev: 43777
Checksum: 301
Satellite: MO-46
Catalog number: 26548
Epoch time: 06348.49473902
Element set: 671
Inclination: 064.5583 deg
RA of node: 034.0156 deg
Eccentricity: 0.0035834
Arg of perigee: 221.9071 deg
Mean anomaly: 137.9266 deg
Mean motion: 14.83068448 rev/day
Decay rate: 2.46e-06 rev/day^2
Epoch rev: 33614
Checksum: 322
Satellite: NO-44
Catalog number: 26931
Epoch time: 06347.74700426
Element set: 0473
Inclination: 067.0529 deg
RA of node: 265.1662 deg
Eccentricity: 0.0004831
Arg of perigee: 267.7769 deg
Mean anomaly: 092.2770 deg
Mean motion: 14.29463632 rev/day
Decay rate: -2.54e-06 rev/day^2
Epoch rev: 27159
Checksum: 323
Satellite: SO-50
Catalog number: 27607
Epoch time: 06348.30319477
Element set: 193
Inclination: 064.5581 deg
RA of node: 286.3296 deg
Eccentricity: 0.0035889
Arg of perigee: 067.3863 deg
Mean anomaly: 293.1010 deg
Mean motion: 14.71207228 rev/day
Decay rate: 1.83e-06 rev/day^2
Epoch rev: 21392
Checksum: 315
Satellite: CO-55
Catalog number: 27844
Epoch time: 06348.55796691
Element set: 915
Inclination: 098.7199 deg
RA of node: 354.3814 deg
Eccentricity: 0.0009205
Arg of perigee: 263.5961 deg
Mean anomaly: 096.4141 deg
Mean motion: 14.20478286 rev/day
Decay rate: -3.3e-07 rev/day^2
Epoch rev: 17926
Checksum: 348
Satellite: CO-57
Catalog number: 27848
Epoch time: 06347.49857275
Element set: 0879
Inclination: 098.7182 deg
RA of node: 352.6016 deg
Eccentricity: 0.0009133
Arg of perigee: 271.8885 deg
Mean anomaly: 088.1248 deg
Mean motion: 14.20301726 rev/day
Decay rate: 5.4e-07 rev/day^2
Epoch rev: 17909
Checksum: 348
Satellite: AO-51
Catalog number: 28375
Epoch time: 06347.69852295
Element set: 698
Inclination: 098.1398 deg
RA of node: 031.3181 deg
Eccentricity: 0.0085147
Arg of perigee: 024.6358 deg
Mean anomaly: 335.8863 deg
Mean motion: 14.40546869 rev/day
Decay rate: 4.4e-07 rev/day^2
Epoch rev: 12900
Checksum: 342
Satellite: CO-56
Catalog number: 28941
Epoch time: 06347.59401309
Element set: 0289
Inclination: 098.1568 deg
RA of node: 023.8890 deg
Eccentricity: 0.0254251
Arg of perigee: 206.2188 deg
Mean anomaly: 152.6004 deg
Mean motion: 15.31884469 rev/day
Decay rate: 2.6732e-04 rev/day^2
Epoch rev: 04494
Checksum: 334
Satellite: HO-59
Catalog number: 29484
Epoch time: 06348.60639075
Element set: 106
Inclination: 098.3117 deg
RA of node: 007.2148 deg
Eccentricity: 0.0258548
Arg of perigee: 200.7042 deg
Mean anomaly: 158.3618 deg
Mean motion: 15.36969852 rev/day
Decay rate: 4.3445e-04 rev/day^2
Epoch rev: 1259
Checksum: 334
/EX
SB KEPS @ AMSAT $ORB06348.W
Orbital Elements 06348.WEATHER
HR AMSAT ORBITAL ELEMENTS FOR WEATHER SATELLITES
FROM WA5QGD FORT WORTH,TX December 14, 2006
Send SUBSCRIBE KEPS/UNSUBSCRIBE KEPS to majordomo at amsat.org only
BID: ORB06348.W
TO ALL RADIO AMATEURS BT
Satellite: NOAA-10
Catalog number: 16969
Epoch time: 06347.60526737
Element set: 0461
Inclination: 098.7557 deg
RA of node: 359.5886 deg
Eccentricity: 0.0012435
Arg of perigee: 351.8773 deg
Mean anomaly: 008.2197 deg
Mean motion: 14.27311675 rev/day
Decay rate: -6.0e-07 rev/day^2
Epoch rev: 05275
Checksum: 334
Satellite: NOAA-11
Catalog number: 19531
Epoch time: 06347.42349137
Element set: 0428
Inclination: 098.8207 deg
RA of node: 073.8539 deg
Eccentricity: 0.0011432
Arg of perigee: 196.2224 deg
Mean anomaly: 163.8580 deg
Mean motion: 14.14829937 rev/day
Decay rate: 1.42e-06 rev/day^2
Epoch rev: 93988
Checksum: 327
Satellite: NOAA-12
Catalog number: 21263
Epoch time: 06347.58212494
Element set: 0925
Inclination: 098.7447 deg
RA of node: 340.2320 deg
Eccentricity: 0.0012085
Arg of perigee: 287.8276 deg
Mean anomaly: 072.1580 deg
Mean motion: 14.25518397 rev/day
Decay rate: 9.3e-07 rev/day^2
Epoch rev: 80980
Checksum: 313
Satellite: MET-3/5
Catalog number: 21655
Epoch time: 06348.64216104
Element set: 198
Inclination: 082.5529 deg
RA of node: 133.3279 deg
Eccentricity: 0.0012877
Arg of perigee: 314.5283 deg
Mean anomaly: 045.4785 deg
Mean motion: 13.17009057 rev/day
Decay rate: 5.1e-07 rev/day^2
Epoch rev: 73711
Checksum: 302
Satellite: MET-2/21
Catalog number: 22782
Epoch time: 06347.66383429
Element set: 694
Inclination: 082.5468 deg
RA of node: 189.0793 deg
Eccentricity: 0.0023451
Arg of perigee: 039.3350 deg
Mean anomaly: 320.9493 deg
Mean motion: 13.83613248 rev/day
Decay rate: -3.6e-07 rev/day^2
Epoch rev: 67086
Checksum: 331
Satellite: OKEAN-4
Catalog number: 23317
Epoch time: 06347.70050897
Element set: 0131
Inclination: 082.5392 deg
RA of node: 109.5788 deg
Eccentricity: 0.0023276
Arg of perigee: 140.6733 deg
Mean anomaly: 219.6171 deg
Mean motion: 14.82440644 rev/day
Decay rate: 2.95e-06 rev/day^2
Epoch rev: 65657
Checksum: 311
Satellite: NOAA-14
Catalog number: 23455
Epoch time: 06347.64783783
Element set: 0420
Inclination: 099.0161 deg
RA of node: 047.6267 deg
Eccentricity: 0.0008789
Arg of perigee: 263.1529 deg
Mean anomaly: 096.8640 deg
Mean motion: 14.13686244 rev/day
Decay rate: 3.22e-06 rev/day^2
Epoch rev: 61642
Checksum: 322
Satellite: SICH-1
Catalog number: 23657
Epoch time: 06348.69475757
Element set: 934
Inclination: 082.5277 deg
RA of node: 249.5414 deg
Eccentricity: 0.0025050
Arg of perigee: 126.5952 deg
Mean anomaly: 233.7572 deg
Mean motion: 14.81428264 rev/day
Decay rate: 2.23e-06 rev/day^2
Epoch rev: 60871
Checksum: 321
